Tomahawk, WI

11:16 AM CDT on May 22, 2017 (GMT -0500)
Tomahawk

Weather History for KTKV - March, 2014

Change the Weather History Date:

Saturday, March 8, 2014

  Actual Average (KRHI) Record (KRHI)
Temperature  
Mean Temperature 14 °F -  
Max Temperature 27 °F 36 °F 74 °F (2000)
Min Temperature 0 °F 12 °F -27 °F (1943)
Degree Days  
Heating Degree Days 52    
Moisture  
Dew Point 7 °F    
Average Humidity 66    
Maximum Humidity 89    
Minimum Humidity 43    
Precipitation  
Precipitation 0.00 in - - ()
Sea Level Pressure  
Sea Level Pressure 30.15 in    
Wind  
Wind Speed 3 mph (NNW)    
Max Wind Speed 8 mph    
Max Gust Speed -    
Visibility 10 miles    
Events Snow    
Averages and records for this station are not official NWS values.
T = Trace of Precipitation, MM = Missing Value Source: NWS Daily Summary

Daily Weather History Graph

Daily Weather History Graph

Search for Another Location

Airport or City:

Trip Planner

Search our weather history database for the weather conditions in past years. The results will help you decide how hot, cold, wet, or windy it might be!

Date:

Astronomy

Mar. 08, 2014 Rise Set
Actual Time 6:24 AM CST 5:55 PM CST
Civil Twilight 5:55 AM CST 6:25 PM CST
Nautical Twilight 5:21 AM CST 6:59 PM CST
Astronomical Twilight 4:46 AM CST 7:34 PM CST
Moon 10:47 AM CST (3/8) 1:11 AM CST (3/8)
Length of Visible Light 12h 30m
Length of Day
11h 31m
First Quarter, 52% of the Moon is Illuminated
Mar 8
First Quarter
Mar 16
Full
Mar 23
Last Quarter
Mar 30
New
Apr 7
First Quarter

Hourly Weather History & Observations

Time (CST) Temp. Windchill Dew Point Humidity Pressure Visibility Wind Dir Wind Speed Gust Speed Precip Events Conditions
12:15 AM 18.5 °F 9.3 °F 10.4 °F 71% 30.09 in 10.0 mi North 6.9 mph - N/A   Mostly Cloudy
12:35 AM 17.8 °F 9.6 °F 9.9 °F 71% 30.10 in 10.0 mi North 5.8 mph - N/A   Overcast
12:55 AM 17.1 °F 7.6 °F 9.9 °F 73% 30.11 in 10.0 mi NNW 6.9 mph - N/A Snow Light Snow
1:15 AM 15.8 °F - 9.3 °F 76% 30.12 in 10.0 mi Calm Calm - N/A   Scattered Clouds
1:35 AM 14.4 °F - 8.6 °F 78% 30.12 in 10.0 mi Calm Calm - N/A   Scattered Clouds
1:55 AM 13.8 °F - 8.4 °F 79% 30.13 in 10.0 mi Calm Calm - N/A   Mostly Cloudy
2:15 AM 12.6 °F - 7.7 °F 81% 30.14 in 10.0 mi Calm Calm - N/A   Scattered Clouds
2:35 AM 12.0 °F - 7.7 °F 83% 30.13 in 10.0 mi Calm Calm - N/A   Clear
2:55 AM 11.3 °F - 7.5 °F 85% 30.14 in 10.0 mi Calm Calm - N/A   Clear
3:15 AM 10.9 °F 2.9 °F 7.3 °F 85% 30.14 in 10.0 mi NNW 4.6 mph - N/A   Clear
3:35 AM 10.4 °F 4.0 °F 7.0 °F 86% 30.15 in 10.0 mi NNW 3.5 mph - N/A   Clear
3:55 AM 10.2 °F - 6.8 °F 86% 30.15 in 10.0 mi Calm Calm - N/A   Clear
4:15 AM 9.5 °F - 6.3 °F 87% 30.16 in 10.0 mi Calm Calm - N/A   Clear
4:35 AM 9.3 °F - 6.1 °F 87% 30.16 in 10.0 mi Calm Calm - N/A   Clear
4:55 AM 9.0 °F - 5.9 °F 87% 30.17 in 10.0 mi Calm Calm - N/A   Clear
5:15 AM 9.0 °F - 5.7 °F 87% 30.17 in 10.0 mi Calm Calm - N/A   Clear
5:35 AM 8.4 °F - 5.0 °F 86% 30.18 in 10.0 mi Calm Calm - N/A   Clear
5:55 AM 6.8 °F - 3.9 °F 88% 30.18 in 10.0 mi Calm Calm - N/A   Clear
6:15 AM 4.5 °F - 1.2 °F 86% 30.19 in 10.0 mi Calm Calm - N/A   Clear
6:35 AM 0.5 °F - -2.4 °F 88% 30.19 in 10.0 mi Calm Calm - N/A   Clear
6:55 AM -0.0 °F - -2.9 °F 88% 30.20 in 10.0 mi Calm Calm - N/A   Clear
7:15 AM 1.8 °F - -0.8 °F 89% 30.21 in 10.0 mi Calm Calm - N/A   Clear
7:35 AM 7.7 °F - 5.2 °F 89% 30.22 in 10.0 mi Calm Calm - N/A   Clear
7:55 AM 11.1 °F - 7.3 °F 85% 30.21 in 10.0 mi Calm Calm - N/A   Clear
8:15 AM 13.3 °F 4.2 °F 6.8 °F 75% 30.21 in 10.0 mi NNE 5.8 mph - N/A   Clear
8:35 AM 14.7 °F 3.8 °F 6.4 °F 70% 30.22 in 10.0 mi NNE 8.1 mph - N/A   Clear
8:55 AM 14.9 °F 4.0 °F 6.3 °F 69% 30.22 in 10.0 mi NNE 8.1 mph - N/A   Scattered Clouds
9:15 AM 16.5 °F 8.1 °F 6.8 °F 66% 30.22 in 10.0 mi North 5.8 mph - N/A   Mostly Cloudy
9:35 AM 16.5 °F 8.1 °F 6.8 °F 66% 30.22 in 10.0 mi NE 5.8 mph - N/A   Scattered Clouds
9:55 AM 17.4 °F 10.4 °F 6.6 °F 63% 30.22 in 10.0 mi NW 4.6 mph - N/A   Scattered Clouds
10:15 AM 17.4 °F - 6.4 °F 62% 30.22 in 10.0 mi Calm Calm - N/A   Clear
10:35 AM 18.7 °F 11.9 °F 6.6 °F 59% 30.22 in 10.0 mi North 4.6 mph - N/A   Clear
10:55 AM 19.4 °F 11.5 °F 7.0 °F 59% 30.21 in 10.0 mi North 5.8 mph - N/A   Clear
11:15 AM 20.1 °F - 7.2 °F 57% 30.21 in 10.0 mi Calm Calm - N/A   Clear
11:35 AM 21.0 °F - 7.0 °F 55% 30.21 in 10.0 mi Calm Calm - N/A   Clear
11:55 AM 22.8 °F 15.5 °F 7.5 °F 52% 30.19 in 10.0 mi NW 5.8 mph - N/A   Clear
12:15 PM 22.6 °F - 7.5 °F 52% 30.19 in 10.0 mi Calm Calm - N/A   Clear
12:35 PM 23.0 °F 18.4 °F 7.3 °F 51% 30.18 in 10.0 mi North 3.5 mph - N/A   Clear
12:55 PM 24.1 °F 16.0 °F 7.2 °F 49% 30.18 in 10.0 mi West 6.9 mph - N/A   Clear
1:15 PM 24.4 °F 20.1 °F 7.5 °F 49% 30.16 in 10.0 mi North 3.5 mph - N/A   Clear
1:35 PM 25.5 °F - 7.5 °F 47% 30.16 in 10.0 mi Calm Calm - N/A   Clear
1:55 PM 25.7 °F 17.1 °F 7.3 °F 46% 30.15 in 10.0 mi NW 8.1 mph - N/A   Clear
2:15 PM 26.6 °F - 7.7 °F 45% 30.14 in 10.0 mi Calm Calm - N/A   Clear
2:35 PM 26.6 °F - 7.9 °F 45% 30.14 in 10.0 mi Calm Calm - N/A   Clear
2:55 PM 27.1 °F 18.9 °F 7.5 °F 44% 30.14 in 10.0 mi West 8.1 mph - N/A   Clear
3:15 PM 27.5 °F - 7.5 °F 43% 30.13 in 10.0 mi Calm Calm - N/A   Clear
3:35 PM 27.5 °F - 7.9 °F 44% 30.13 in 10.0 mi Calm Calm - N/A   Clear
3:55 PM 27.5 °F 20.2 °F 7.9 °F 44% 30.13 in 10.0 mi West 6.9 mph - N/A   Clear
4:15 PM 27.5 °F - 8.6 °F 45% 30.13 in 10.0 mi Calm Calm - N/A   Clear
4:35 PM 27.5 °F - 7.9 °F 44% 30.13 in 10.0 mi Calm Calm - N/A   Clear
4:55 PM 27.3 °F 19.1 °F 7.5 °F 43% 30.13 in 10.0 mi West 8.1 mph - N/A   Clear
5:15 PM 26.8 °F 19.3 °F 7.5 °F 44% 30.13 in 10.0 mi West 6.9 mph - N/A   Clear
5:35 PM 25.7 °F - 7.9 °F 47% 30.14 in 10.0 mi Calm Calm - N/A   Clear
5:55 PM 25.3 °F - 7.7 °F 47% 30.13 in 10.0 mi Calm Calm - N/A   Clear
6:15 PM 24.8 °F - 7.9 °F 49% 30.12 in 10.0 mi Calm Calm - N/A   Clear
6:35 PM 24.3 °F - 8.6 °F 51% 30.12 in 10.0 mi Calm Calm - N/A   Clear
6:55 PM 23.2 °F - 8.6 °F 54% 30.13 in 10.0 mi Calm Calm - N/A   Clear
7:15 PM 21.9 °F - 8.6 °F 57% 30.12 in 10.0 mi Calm Calm - N/A   Clear
7:35 PM 21.9 °F - 8.6 °F 57% 30.12 in 10.0 mi Calm Calm - N/A   Clear
7:55 PM 21.9 °F 15.7 °F 8.6 °F 57% 30.13 in 10.0 mi West 4.6 mph - N/A   Clear
8:15 PM 21.0 °F - 8.2 °F 58% 30.12 in 10.0 mi Calm Calm - N/A   Clear
8:35 PM 20.1 °F - 7.9 °F 59% 30.13 in 10.0 mi Calm Calm - N/A   Clear
8:55 PM 19.4 °F - 8.4 °F 62% 30.13 in 10.0 mi Calm Calm - N/A   Clear
9:15 PM 19.4 °F - 8.4 °F 62% 30.13 in 10.0 mi Calm Calm - N/A   Clear
9:35 PM 18.5 °F - 8.2 °F 64% 30.12 in 10.0 mi Calm Calm - N/A   Clear
9:55 PM 18.3 °F - 7.9 °F 64% 30.12 in 10.0 mi Calm Calm - N/A   Clear
10:15 PM 14.5 °F - 6.6 °F 71% 30.12 in 10.0 mi Calm Calm - N/A   Clear
10:35 PM 12.7 °F - 5.9 °F 74% 30.11 in 10.0 mi Calm Calm - N/A   Clear
10:55 PM 11.8 °F - 5.0 °F 74% 30.12 in 10.0 mi Calm Calm - N/A   Clear
11:15 PM 9.5 °F - 3.9 °F 78% 30.12 in 10.0 mi Calm Calm - N/A   Clear
11:35 PM 8.1 °F - 4.1 °F 84% 30.11 in 10.0 mi Calm Calm - N/A   Clear
11:55 PM 13.1 °F - 7.0 °F 77% 30.10 in 10.0 mi Calm Calm - N/A   Clear